COSMOS 2456 (730)

Last updated on Sat Apr 13 2024 01:03:06 GMT+0100 (British Summer Time)

1 36111U 09070A 24103.10443664 .00000023 00000+0 00000+0 0 9999 2 36111 64.5844 98.2234 0006387 304.4731 142.4140 2.13099053111460
UTC large
Height (km)
Speed (km/s)
/
Latitude / Longitude
Inclination (degrees)
Orbital Period (minutes)
Azimuth
Elevation
Range (km)
Doppler Factor

Next 0 passes for location: London (51.5072 / 0.1276)

Sorry there are no passes over London.